TAP934 LPPT-LSZH

Flight info

Callsign TAP934
Flight time N/A
Altitude 38000
Route IXIDA DCT TOSDI DCT ZMR/N0465F400 DCT NEA DCT DGO DCT LPA DCT GOSVI DCT TOPTU DCT TOU DCT GAI DCT MEN DCT NINUN/N0459F380 DCT LATAM DCT ETREK/N0450F300 DCT LTP DCT SOPLO DCT OMASI DCT KINNI DCT LAMUR DCT GUDAX Z57 DOPIL
Aircraft A339/H-SADE1E2E3GHIJ3J5M1P2RWXY/LB2D1

Departure

Time 2026-05-08 09:41
Airport Lisbon Humberto Delgado Airport (LPPT)

Arrival

Time N/A
Airport Zürich Airport (LSZH)
Time Latitude Longitude Altitude Speed Heading
2026-05-08 09:23 38.76933 -9.13075 361 ft 0 kts 79°
2026-05-08 09:31 38.76931 -9.13090 363 ft 3 kts 79°
2026-05-08 09:31 38.76927 -9.13116 360 ft 3 kts 47°
2026-05-08 09:31 38.76912 -9.13132 362 ft 3 kts 18°
2026-05-08 09:32 38.76893 -9.13140 358 ft 3 kts 351°
2026-05-08 09:32 38.76879 -9.13136 358 ft 0 kts 346°
2026-05-08 09:34 38.76881 -9.13137 358 ft 2 kts 346°
2026-05-08 09:34 38.76916 -9.13148 361 ft 7 kts 346°
2026-05-08 09:35 38.76973 -9.13164 355 ft 12 kts 347°
2026-05-08 09:35 38.77071 -9.13191 362 ft 16 kts 348°
2026-05-08 09:35 38.77183 -9.13220 359 ft 17 kts 348°
2026-05-08 09:35 38.77307 -9.13252 354 ft 19 kts 349°
2026-05-08 09:36 38.77435 -9.13282 356 ft 20 kts 349°
2026-05-08 09:36 38.77572 -9.13315 356 ft 20 kts 351°
2026-05-08 09:36 38.77715 -9.13334 356 ft 21 kts 351°
2026-05-08 09:36 38.77861 -9.13372 353 ft 22 kts 348°
2026-05-08 09:37 38.78012 -9.13400 360 ft 22 kts
2026-05-08 09:37 38.78159 -9.13341 361 ft 23 kts 22°
2026-05-08 09:37 38.78304 -9.13269 360 ft 22 kts 19°
2026-05-08 09:37 38.78384 -9.13229 359 ft 8 kts 21°
2026-05-08 09:38 38.78459 -9.13223 355 ft 18 kts 352°
2026-05-08 09:38 38.78514 -9.13255 362 ft 0 kts 317°
2026-05-08 09:38 38.78519 -9.13261 361 ft 4 kts 316°
2026-05-08 09:39 38.78541 -9.13305 356 ft 7 kts 301°
2026-05-08 09:39 38.78545 -9.13367 357 ft 5 kts 241°
2026-05-08 09:39 38.78511 -9.13391 361 ft 6 kts 211°
2026-05-08 09:39 38.78486 -9.13404 355 ft 0 kts 203°
2026-05-08 09:40 38.78236 -9.13537 362 ft 82 kts 203°
2026-05-08 09:40 38.77462 -9.13950 361 ft 154 kts 202°
2026-05-08 09:40 38.76360 -9.14549 678 ft 178 kts 197°
2026-05-08 09:41 38.75181 -9.15072 1517 ft 180 kts 197°
2026-05-08 09:41 38.73995 -9.15622 2387 ft 182 kts 199°
2026-05-08 09:41 38.72801 -9.16218 3198 ft 187 kts 200°
2026-05-08 09:41 38.71575 -9.16866 3937 ft 196 kts 202°
2026-05-08 09:42 38.70280 -9.17573 4591 ft 210 kts 203°
2026-05-08 09:42 38.68887 -9.18359 5058 ft 228 kts 204°
2026-05-08 09:42 38.67575 -9.19563 5442 ft 246 kts 227°
2026-05-08 09:42 38.66769 -9.21545 5844 ft 260 kts 253°
2026-05-08 09:43 38.66734 -9.23875 6240 ft 269 kts 279°
2026-05-08 09:43 38.67560 -9.26065 6862 ft 279 kts 306°
2026-05-08 09:43 38.69084 -9.27612 7601 ft 287 kts 332°
2026-05-08 09:43 38.71036 -9.28224 8301 ft 295 kts 357°
2026-05-08 09:44 38.73053 -9.27731 9032 ft 300 kts 23°
2026-05-08 09:44 38.74763 -9.26203 9729 ft 304 kts 49°
2026-05-08 09:44 38.75943 -9.23949 10268 ft 311 kts 63°
2026-05-08 09:44 38.77041 -9.21458 10445 ft 331 kts 60°
2026-05-08 09:45 38.78437 -9.19010 10643 ft 349 kts 49°
2026-05-08 09:45 38.80117 -9.16704 11126 ft 356 kts 47°
2026-05-08 09:45 38.81848 -9.14401 11703 ft 361 kts 46°
2026-05-08 09:45 38.83604 -9.12088 12362 ft 363 kts 45°
2026-05-08 09:46 38.85376 -9.09758 12948 ft 367 kts 45°
2026-05-08 09:46 38.87166 -9.07396 13539 ft 371 kts 45°
2026-05-08 09:46 38.88976 -9.05002 14098 ft 375 kts 45°
2026-05-08 09:46 38.90797 -9.02590 14623 ft 378 kts 45°
2026-05-08 09:47 38.92629 -9.00159 15164 ft 381 kts 45°
2026-05-08 09:47 38.94482 -8.97698 15702 ft 384 kts 45°
2026-05-08 09:47 38.95713 -8.96062 16053 ft 386 kts 45°
2026-05-08 09:47 38.97589 -8.93565 16574 ft 390 kts 45°
2026-05-08 09:48 38.99479 -8.91047 17102 ft 393 kts 45°
2026-05-08 09:48 39.01386 -8.88504 17624 ft 397 kts 45°
2026-05-08 09:48 39.03309 -8.85938 18156 ft 400 kts 45°
2026-05-08 09:48 39.05249 -8.83347 18600 ft 404 kts 45°
2026-05-08 09:49 39.07205 -8.80732 19078 ft 407 kts 45°
2026-05-08 09:49 39.09175 -8.78096 19535 ft 410 kts 45°
2026-05-08 09:49 39.11163 -8.75434 19989 ft 414 kts 45°
2026-05-08 09:49 39.13166 -8.72749 20469 ft 417 kts 45°
2026-05-08 09:50 39.15184 -8.70041 20938 ft 421 kts 45°
2026-05-08 09:50 39.17218 -8.67307 21395 ft 424 kts 45°
2026-05-08 09:50 39.19265 -8.64555 21867 ft 428 kts 45°
2026-05-08 09:50 39.21332 -8.61773 22337 ft 431 kts 45°
2026-05-08 09:51 39.23416 -8.58966 22798 ft 435 kts 44°
2026-05-08 09:51 39.25521 -8.56127 23282 ft 439 kts 44°
2026-05-08 09:51 39.27635 -8.53272 23709 ft 442 kts 44°
2026-05-08 09:51 39.29771 -8.50386 24115 ft 446 kts 44°
2026-05-08 09:52 39.31923 -8.47476 24489 ft 450 kts 44°
2026-05-08 09:52 39.34090 -8.44542 24880 ft 454 kts 44°
2026-05-08 09:52 39.36248 -8.41617 25238 ft 458 kts 44°
2026-05-08 09:52 39.38483 -8.38585 25637 ft 462 kts 44°
2026-05-08 09:53 39.40706 -8.35565 26012 ft 465 kts 44°
2026-05-08 09:53 39.42942 -8.32525 26394 ft 468 kts 44°
2026-05-08 09:53 39.45162 -8.29505 26756 ft 472 kts 44°
2026-05-08 09:53 39.47433 -8.26412 27128 ft 475 kts 44°
2026-05-08 09:54 39.49717 -8.23297 27509 ft 479 kts 44°
2026-05-08 09:54 39.52016 -8.20158 27864 ft 482 kts 44°
2026-05-08 09:54 39.54324 -8.17004 28241 ft 485 kts 44°
2026-05-08 09:54 39.56652 -8.13820 28597 ft 488 kts 44°
2026-05-08 09:55 39.59787 -8.09526 29093 ft 492 kts 44°
2026-05-08 09:55 39.61348 -8.07385 29325 ft 494 kts 44°
2026-05-08 09:55 39.63715 -8.04138 29673 ft 497 kts 44°
2026-05-08 09:55 39.66097 -8.00869 30005 ft 500 kts 44°
2026-05-08 09:56 39.68551 -7.97670 30356 ft 501 kts 41°
2026-05-08 09:56 39.71069 -7.94540 30716 ft 502 kts 41°
2026-05-08 09:56 39.73604 -7.91412 31064 ft 504 kts 41°
2026-05-08 09:56 39.76142 -7.88258 31399 ft 506 kts 41°
2026-05-08 09:57 39.81220 -7.81879 32081 ft 509 kts 42°
2026-05-08 09:57 39.83765 -7.78660 32385 ft 511 kts 43°
2026-05-08 09:57 39.86314 -7.75432 32687 ft 512 kts 43°
2026-05-08 09:58 39.88866 -7.72195 32950 ft 513 kts 43°
2026-05-08 09:58 39.91422 -7.68949 33170 ft 514 kts 43°
2026-05-08 09:58 39.93987 -7.65689 33361 ft 515 kts 43°
2026-05-08 09:58 39.96553 -7.62423 33612 ft 515 kts 43°
2026-05-08 09:59 39.99115 -7.59160 33846 ft 515 kts 43°
2026-05-08 09:59 40.01673 -7.55898 34074 ft 514 kts 43°
2026-05-08 09:59 40.04226 -7.52639 34283 ft 513 kts 43°
2026-05-08 09:59 40.06777 -7.49377 34459 ft 514 kts 44°
2026-05-08 10:00 40.09328 -7.46114 34643 ft 513 kts 44°
2026-05-08 10:00 40.11878 -7.42848 34835 ft 513 kts 44°
2026-05-08 10:00 40.14419 -7.39589 35026 ft 513 kts 44°
2026-05-08 10:00 40.16964 -7.36322 35212 ft 513 kts 44°
2026-05-08 10:01 40.19509 -7.33050 35384 ft 513 kts 44°
2026-05-08 10:01 40.22050 -7.29781 35582 ft 512 kts 44°
2026-05-08 10:01 40.24589 -7.26510 35773 ft 512 kts 44°
2026-05-08 10:01 40.27129 -7.23235 35961 ft 512 kts 44°
2026-05-08 10:02 40.29661 -7.19966 36152 ft 511 kts 44°
2026-05-08 10:02 40.32193 -7.16694 36336 ft 511 kts 44°
2026-05-08 10:02 40.34723 -7.13421 36507 ft 511 kts 44°
2026-05-08 10:02 40.37248 -7.10150 36725 ft 510 kts 45°
2026-05-08 10:03 40.39760 -7.06891 37062 ft 506 kts 45°
2026-05-08 10:03 40.42221 -7.03696 37449 ft 503 kts 45°
2026-05-08 10:03 40.44698 -7.00477 37837 ft 500 kts 45°
2026-05-08 10:03 40.47174 -6.97255 37942 ft 503 kts 45°
2026-05-08 10:04 40.52191 -6.90717 37939 ft 512 kts 45°
2026-05-08 10:04 40.57266 -6.84088 37936 ft 516 kts 45°
2026-05-08 10:05 40.62370 -6.77407 37936 ft 519 kts 45°
2026-05-08 10:05 40.67492 -6.70685 37937 ft 520 kts 45°
2026-05-08 10:06 40.72612 -6.63952 37929 ft 520 kts 45°
2026-05-08 10:06 40.77722 -6.57216 37929 ft 519 kts 45°
2026-05-08 10:07 40.82815 -6.50487 37926 ft 518 kts 46°
2026-05-08 10:07 40.87899 -6.43754 37928 ft 517 kts 46°
2026-05-08 10:08 40.92978 -6.37012 37919 ft 517 kts 46°
2026-05-08 10:08 40.98048 -6.30269 37918 ft 516 kts 46°
2026-05-08 10:09 41.03246 -6.23705 37910 ft 517 kts 42°
2026-05-08 10:09 41.08643 -6.17420 37915 ft 516 kts 42°
2026-05-08 10:10 41.14004 -6.11082 37916 ft 516 kts 43°
2026-05-08 10:10 41.19337 -6.04699 37916 ft 516 kts 43°
2026-05-08 10:11 41.24662 -5.98302 37913 ft 516 kts 43°
2026-05-08 10:11 41.29982 -5.91897 37916 ft 516 kts 43°
2026-05-08 10:12 41.35269 -5.85518 37917 ft 516 kts 43°
2026-05-08 10:12 41.40585 -5.79089 37921 ft 516 kts 43°
2026-05-08 10:13 41.45896 -5.72652 37921 ft 516 kts 44°
2026-05-08 10:13 41.50991 -5.65939 37915 ft 514 kts 52°
2026-05-08 10:14 41.54933 -5.58060 37922 ft 510 kts 65°
2026-05-08 10:14 41.57840 -5.49457 37922 ft 508 kts 69°
2026-05-08 10:15 41.60717 -5.40830 37924 ft 509 kts 69°
2026-05-08 10:15 41.63590 -5.32177 37925 ft 509 kts 69°
2026-05-08 10:16 41.66451 -5.23508 37927 ft 509 kts 69°
2026-05-08 10:16 41.69299 -5.14844 37934 ft 509 kts 69°
2026-05-08 10:17 41.72143 -5.06166 37932 ft 509 kts 69°
2026-05-08 10:17 41.74983 -4.97471 37937 ft 510 kts 69°
2026-05-08 10:18 41.77819 -4.88766 37943 ft 510 kts 69°
2026-05-08 10:18 41.80648 -4.80049 37933 ft 510 kts 69°
2026-05-08 10:19 41.83473 -4.71317 37943 ft 511 kts 69°
2026-05-08 10:20 41.87707 -4.58180 37950 ft 511 kts 69°
2026-05-08 10:20 41.90500 -4.49476 37946 ft 511 kts 69°
2026-05-08 10:21 41.93301 -4.40723 37936 ft 510 kts 70°
2026-05-08 10:21 41.96088 -4.31986 37933 ft 509 kts 70°
2026-05-08 10:22 41.98870 -4.23233 37923 ft 509 kts 70°
2026-05-08 10:22 42.01641 -4.14486 37927 ft 509 kts 70°
2026-05-08 10:23 42.04482 -4.05773 37927 ft 509 kts 67°
2026-05-08 10:23 42.07571 -3.97193 37923 ft 509 kts 66°
2026-05-08 10:24 42.10639 -3.88598 37934 ft 509 kts 67°
2026-05-08 10:24 42.13672 -3.79972 37937 ft 510 kts 67°
2026-05-08 10:25 42.16693 -3.71333 37948 ft 509 kts 67°
2026-05-08 10:25 42.19707 -3.62687 37955 ft 510 kts 67°
2026-05-08 10:26 42.22712 -3.54042 37959 ft 509 kts 67°